Overview Statistics Trail Chart Weather Telemetry Raw packets
 

This is the latest recevied weather packets stored in our database for station/object 4S6DRJ-13. If no packets are shown the sender has not sent any weather packets the latest 10 day(s).

<< 31 32 33 34 35 36 37 >>
Time Temp. Humidity Pressure Rain* Wind** Luminosity Snow
1788399053 26.67° C 88% 1009.7 hPa 1.78 mm 0.89 m/s, 246° 91 W/m² -
1788398992 26.67° C 89% 1009.7 hPa 1.78 mm 0.89 m/s, 236° 86 W/m² -
1788398931 26.67° C 88% 1009.7 hPa 1.78 mm 0.89 m/s, 273° 82 W/m² -
1788398870 26.67° C 89% 1009.6 hPa 1.78 mm 0.89 m/s, 284° 78 W/m² -
1788398809 26.67° C 89% 1009.6 hPa 1.78 mm 0.89 m/s, 256° 75 W/m² -
1788398748 26.67° C 89% 1009.6 hPa 1.78 mm 0.89 m/s, 309° 72 W/m² -
1788398687 27.22° C 88% 1009.6 hPa 1.78 mm 1.79 m/s, 280° 67 W/m² -
1788398627 27.22° C 88% 1009.5 hPa 1.78 mm 2.24 m/s, 49° 64 W/m² -
1788398565 27.22° C 89% 1009.6 hPa 1.78 mm 2.68 m/s, 323° 62 W/m² -
1788398504 27.22° C 89% 1009.6 hPa 1.78 mm 2.68 m/s, 322° 63 W/m² -
1788398442 27.22° C 89% 1009.5 hPa 1.78 mm 1.79 m/s, 50° 61 W/m² -
1788398382 27.22° C 90% 1009.6 hPa 1.78 mm 0.89 m/s, 317° 73 W/m² -
1788398320 27.22° C 90% 1009.5 hPa 1.78 mm 0 m/s 90 W/m² -
1788398260 27.22° C 90% 1009.3 hPa 1.78 mm 0.89 m/s, 274° 134 W/m² -
1788398198 27.22° C 90% 1009.5 hPa 1.78 mm 0 m/s 150 W/m² -
1788398138 27.22° C 90% 1009.3 hPa 1.78 mm 0 m/s 135 W/m² -
1788398076 27.22° C 90% 1009.4 hPa 1.78 mm 0 m/s 104 W/m² -
1788398015 27.22° C 90% 1009.4 hPa 1.78 mm 0 m/s 83 W/m² -
1788397955 27.22° C 90% 1009.5 hPa 1.78 mm 0 m/s 68 W/m² -
1788397910 27.22° C 90% 1009.3 hPa 1.78 mm 0 m/s 60 W/m² -
1788397833 27.22° C 90% 1009.6 hPa 1.78 mm 0 m/s 60 W/m² -
1788397771 27.22° C 90% 1009.5 hPa 1.78 mm 0.45 m/s, 230° 64 W/m² -
1788397710 27.22° C 90% 1009.6 hPa 1.78 mm 0 m/s 61 W/m² -
1788397649 27.22° C 90% 1009.5 hPa 1.78 mm 0 m/s 59 W/m² -
1788397589 27.22° C 90% 1009.4 hPa 1.78 mm 0.89 m/s, 274° 60 W/m² -

* Rain latest hour (hover to see other rain measurements)
** Current wind speed in m/s (hover to see current wind gust speed)